Tracking 20945 objects as of 8-Jul-2020
HD Live streaming from Space Station
objects crossing your sky now

FENGYUN 1C DEB

Track FENGYUN 1C DEB now!
10-day predictions


NORAD ID: 37032
Int'l Code: 1999-025EDQ
Perigee: 536.6 km
Apogee: 652.0 km
Inclination: 99.4 °
Period: 96.4 minutes
Semi major axis: 6965 km
RCS: 0.0109 m2 (small)
Launch date: May 10, 1999
Source: People's Republic of China (PRC)
Launch site: Taiyaun Space Center, China (TSC)

Note: This is SATELLITE DEBRIS
aabbcc
Your satellite tracking list
Your tracking list is empty




NASA's NSSDC Master Catalog

Two Line Element Set (TLE):
1 37032U 99025EDQ 19134.81583970 +.00005339 +00000-0 +48219-3 0  9996
2 37032 099.3850 000.8280 0082835 309.3646 050.0250 14.93460177609364
Source of the keplerian elements: AFSPC